GW6092 Weather Reports


time (UTC)temp
F
wind
direction
speed
knots
gust
knots
rain 1hr
in
rain 24hr
in
rain mn
in
humidity
%
barometer
mb
20260504070228 40 29 0.0 0.0 0.00 0.00 0.00 90 1014.6
20260504060149 39 23 0.0 0.9 0.00 0.00 0.00 91 1014.9
20260504050617 39 29 0.0 0.0 0.00 0.00 0.00 89 1014.9
20260504050114 39 27 0.0 0.0 0.00 0.00 0.00 89 1014.9
20260504045611 39 27 0.0 0.9 0.00 0.00 0.00 89 1014.8
20260504045106 39 24 0.0 0.0 0.00 0.00 0.00 89 1014.8
20260504044604 39 28 0.0 0.0 0.00 0.00 0.00 89 1014.8
20260504044100 39 27 0.0 0.0 0.00 0.00 0.00 89 1014.7
20260504043558 39 25 0.0 0.0 0.00 0.00 0.00 88 1014.8
20260504043055 39 25 0.0 0.9 0.00 0.00 0.00 88 1014.7
20260504042552 39 27 0.0 0.0 0.00 0.00 0.00 88 1015.0
20260504042049 39 26 0.0 0.0 0.00 0.00 0.00 87 1015.0
20260504041544 39 26 0.0 0.0 0.00 0.00 0.00 87 1014.7
20260504041041 39 33 0.0 0.0 0.00 0.00 0.00 86 1014.8
20260504040539 40 33 0.0 0.0 0.00 0.00 0.00 85 1014.9
20260504040035 40 33 0.0 0.0 0.00 0.00 0.00 85 1014.8
20260504035532 40 33 0.0 0.0 0.00 0.00 0.00 85 1014.9
20260504035028 40 33 0.0 0.0 0.00 0.00 0.00 84 1014.7
20260504034526 40 33 0.0 0.0 0.00 0.00 0.00 83 1014.4
20260504034023 40 33 0.0 0.0 0.00 0.00 0.00 82 1014.7
20260504033521 40 33 0.0 0.0 0.00 0.00 0.00 82 1014.6
20260504033018 40 33 0.0 0.0 0.00 0.00 0.00 82 1014.3
20260504032515 40 34 0.0 0.0 0.00 0.00 0.00 81 1014.2
20260504032012 40 33 0.0 0.0 0.00 0.00 0.00 80 1014.2
20260504031509 41 33 0.0 0.0 0.00 0.00 0.00 80 1014.2
20260504031005 41 33 0.0 0.0 0.00 0.00 0.00 78 1014.2
20260504030502 41 33 0.0 0.0 0.00 0.00 0.00 77 1014.2
20260504025958 41 33 0.0 0.0 0.00 0.00 0.00 77 1014.2
20260504025455 42 33 0.0 0.0 0.00 0.00 0.00 77 1014.1
20260504024952 42 33 0.0 0.0 0.00 0.00 0.00 76 1014.1
20260504024449 42 33 0.0 0.0 0.00 0.00 0.00 75 1014.1
20260504023946 42 33 0.0 0.0 0.00 0.00 0.00 74 1014.1
20260504023443 43 33 0.0 0.0 0.00 0.00 0.00 74 1014.1
20260504022938 43 33 0.0 0.0 0.00 0.00 0.00 73 1014.0
20260504022435 43 33 0.0 0.0 0.00 0.00 0.00 72 1014.1
20260504021931 43 33 0.0 0.0 0.00 0.00 0.00 72 1014.0
20260504021429 43 33 0.0 0.0 0.00 0.00 0.00 70 1014.0
20260504020926 44 33 0.0 0.0 0.00 0.00 0.00 69 1014.2
20260504020422 44 34 0.0 0.0 0.00 0.00 0.00 69 1014.2
20260504015919 44 33 0.0 0.0 0.00 0.00 0.00 69 1013.9
20260504015415 44 33 0.0 0.0 0.00 0.00 0.00 67 1014.1
20260504014911 45 33 0.0 0.0 0.00 0.00 0.00 66 1014.0
20260504014407 45 33 0.0 0.0 0.00 0.00 0.00 65 1013.9
20260504013904 46 33 0.0 0.0 0.00 0.00 0.00 64 1014.0
20260504013403 46 34 0.0 0.0 0.00 0.00 0.00 65 1014.0
20260504012859 46 35 0.0 0.0 0.00 0.00 0.00 63 1013.9
20260504012357 47 31 0.0 0.0 0.00 0.00 0.00 61 1013.8
20260504011854 47 31 0.0 0.0 0.00 0.00 0.00 61 1013.8
20260504011350 47 29 0.0 0.0 0.00 0.00 0.00 60 1013.8
20260504010846 48 31 0.0 0.0 0.00 0.00 0.00 58 1013.6
20260504010342 48 32 0.0 0.0 0.00 0.00 0.00 57 1013.5
20260504005839 48 33 0.0 0.0 0.00 0.00 0.00 57 1013.6
20260504005336 49 34 0.0 0.0 0.00 0.00 0.00 55 1013.7
20260504004833 49 34 0.0 0.0 0.00 0.00 0.00 54 1013.6
20260504004331 49 33 0.0 0.0 0.00 0.00 0.00 54 1013.3
20260504003827 50 32 0.0 0.0 0.00 0.00 0.00 51 1013.3
20260504003324 51 32 0.0 0.0 0.00 0.00 0.00 51 1013.4
20260504002821 51 33 0.0 0.0 0.00 0.00 0.00 49 1013.4
20260504002317 52 33 0.0 0.0 0.00 0.00 0.00 47 1013.2
20260504001815 53 34 0.0 0.0 0.00 0.00 0.00 45 1013.2
20260504001312 53 33 0.0 0.0 0.00 0.00 0.00 43 1013.4
20260504000809 54 35 0.0 0.9 0.00 0.00 0.00 43 1013.2
20260504000306 55 33 0.0 0.0 0.00 0.00 0.00 42 1013.0
20260503235804 55 32 0.0 0.0 0.00 0.00 0.00 40 1013.0
20260503235301 56 32 0.0 0.0 0.00 0.00 0.00 39 1012.9
20260503234759 57 31 0.0 0.0 0.00 0.00 0.00 36 1012.8
20260503234256 58 31 0.0 0.0 0.00 0.00 0.00 38 1012.9
20260503233754 59 30 0.0 0.0 0.00 0.00 0.00 37 1012.7
20260503233249 60 29 0.0 0.0 0.00 0.00 0.00 36 1012.8
20260503232746 60 17 0.9 1.7 0.00 0.00 0.00 32 1012.7
20260503232243 60 24 0.9 0.9 0.00 0.00 0.00 32 1012.6
20260503231741 61 9 0.9 1.7 0.00 0.00 0.00 31 1012.5
20260503231238 61 83 1.7 2.6 0.00 0.00 0.00 31 1012.5
20260503230734 61 22 0.0 0.9 0.00 0.00 0.00 31 1012.5
20260503230232 61 39 0.9 0.9 0.00 0.00 0.00 30 1012.5
20260503225729 62 6 0.9 1.7 0.00 0.00 0.00 30 1012.7
20260503225229 62 24 0.0 0.0 0.00 0.00 0.00 31 1012.5
20260503224726 62 22 0.9 0.9 0.00 0.00 0.00 29 1012.6
20260503224224 62 347 0.0 0.9 0.00 0.00 0.00 29 1012.6
20260503223721 62 149 0.9 1.7 0.00 0.00 0.00 31 1012.5
20260503223219 62 358 3.5 6.1 0.00 0.00 0.00 30 1012.5
20260503222715 62 351 2.6 2.6 0.00 0.00 0.00 28 1012.7
20260503222213 63 59 1.7 2.6 0.00 0.00 0.00 27 1012.6
20260503221711 63 62 1.7 5.2 0.00 0.00 0.00 27 1012.7
20260503221209 63 1 3.5 5.2 0.00 0.00 0.00 28 1012.6
20260503220705 63 2 1.7 2.6 0.00 0.00 0.00 27 1012.7
20260503220201 64 325 3.5 3.5 0.00 0.00 0.00 27 1012.7
20260503215658 63 58 0.9 0.9 0.00 0.00 0.00 28 1012.8
20260503215155 64 357 1.7 3.5 0.00 0.00 0.00 27 1012.8
20260503214649 64 335 0.9 1.7 0.00 0.00 0.00 27 1012.6
20260503214144 63 4 6.1 7.0 0.00 0.00 0.00 27 1012.5
20260503213643 64 15 2.6 3.5 0.00 0.00 0.00 28 1012.6
20260503213139 64 311 5.2 7.0 0.00 0.00 0.00 26 1012.8
20260503212637 64 297 6.1 7.0 0.00 0.00 0.00 26 1012.5
20260503212134 64 22 0.9 1.7 0.00 0.00 0.00 28 1012.6
20260503211632 64 295 3.5 6.1 0.00 0.00 0.00 26 1012.5
20260503211127 64 32 3.5 6.1 0.00 0.00 0.00 26 1012.6
20260503210624 64 5 0.9 1.7 0.00 0.00 0.00 26 1012.6
20260503210120 64 262 1.7 1.7 0.00 0.00 0.00 28 1012.6
20260503205616 64 221 6.1 7.8 0.00 0.00 0.00 26 1012.6
20260503205112 64 357 2.6 3.5 0.00 0.00 0.00 29 1012.6
20260503204609 64 36 1.7 1.7 0.00 0.00 0.00 28 1012.7
20260503204107 64 11 3.5 5.2 0.00 0.00 0.00 27 1012.7
20260503203603 64 354 0.9 1.7 0.00 0.00 0.00 30 1013.0
20260503203101 64 353 4.3 7.8 0.00 0.00 0.00 27 1013.0
20260503202558 64 23 1.7 1.7 0.00 0.00 0.00 28 1012.9
20260503202056 65 215 3.5 6.1 0.00 0.00 0.00 28 1013.2
20260503201554 64 293 1.7 2.6 0.00 0.00 0.00 29 1013.0
20260503201051 64 23 1.7 1.7 0.00 0.00 0.00 30 1013.0
20260503200547 64 31 3.5 6.1 0.00 0.00 0.00 27 1013.0
20260503200044 64 7 5.2 7.0 0.00 0.00 0.00 27 1013.1
20260503195541 62 296 1.7 2.6 0.00 0.00 0.00 29 1013.5
20260503195038 64 20 3.5 7.0 0.00 0.00 0.00 28 1013.5
20260503194535 63 42 2.6 3.5 0.00 0.00 0.00 29 1013.5
20260503194035 62 315 2.6 3.5 0.00 0.00 0.00 33 1013.6
20260503193532 61 1 2.6 3.5 0.00 0.00 0.00 32 1013.7
20260503193027 62 26 0.9 1.7 0.00 0.00 0.00 32 1013.6
20260503192523 63 355 5.2 7.8 0.00 0.00 0.00 28 1013.9
20260503192020 63 246 3.5 5.2 0.00 0.00 0.00 28 1013.9
20260503191517 62 352 0.9 0.9 0.00 0.00 0.00 37 1013.7
20260503191013 62 340 3.5 5.2 0.00 0.00 0.00 30 1013.8
20260503190510 64 0 0.9 0.9 0.00 0.00 0.00 30 1013.9
20260503190008 63 333 2.6 2.6 0.00 0.00 0.00 29 1013.9
20260503185504 62 19 5.2 7.8 0.00 0.00 0.00 28 1013.9
20260503185003 62 316 3.5 5.2 0.00 0.00 0.00 30 1014.0
20260503184500 62 10 0.9 0.9 0.00 0.00 0.00 36 1014.3
20260503183956 63 356 1.7 1.7 0.00 0.00 0.00 31 1014.2
20260503183453 62 8 3.5 5.2 0.00 0.00 0.00 31 1014.1
20260503182950 62 298 7.8 11.3 0.00 0.00 0.00 29 1014.3
20260503182449 62 338 1.7 2.6 0.00 0.00 0.00 30 1014.3
20260503181946 60 265 3.5 3.5 0.00 0.00 0.00 32 1014.2
20260503181443 59 312 6.1 11.3 0.00 0.00 0.00 32 1014.4
20260503180939 61 26 2.6 3.5 0.00 0.00 0.00 33 1014.4
20260503180437 62 13 2.6 2.6 0.00 0.00 0.00 34 1014.7
20260503175934 61 312 1.7 1.7 0.00 0.00 0.00 33 1014.3
20260503175432 62 3 2.6 2.6 0.00 0.00 0.00 33 1014.6
20260503174927 61 6 5.2 7.0 0.00 0.00 0.00 29 1014.8
20260503174426 61 354 5.2 9.6 0.00 0.00 0.00 33 1014.7
20260503173926 61 242 4.3 6.1 0.00 0.00 0.00 32 1014.9
20260503173422 61 349 1.7 2.6 0.00 0.00 0.00 34 1014.8
20260503172919 60 5 2.6 5.2 0.00 0.00 0.00 35 1014.8
20260503172417 58 98 3.5 5.2 0.00 0.00 0.00 34 1014.8
20260503171913 59 201 3.5 6.1 0.00 0.00 0.00 34 1014.8
20260503171409 60 258 3.5 5.2 0.00 0.00 0.00 31 1014.8
20260503170907 61 331 6.1 7.8 0.00 0.00 0.00 33 1015.1
20260503170403 58 41 1.7 2.6 0.00 0.00 0.00 37 1015.0
20260503150755 55 30 0.0 0.9 0.00 0.00 0.00 36 1015.6
20260503150251 54 207 3.5 5.2 0.00 0.00 0.00 38 1015.7
20260503140216 52 337 3.5 5.2 0.00 0.00 0.00 39 1015.8
20260503131145 50 348 0.9 1.7 0.00 0.00 0.00 47 1015.9
20260503130643 50 194 3.5 5.2 0.00 0.00 0.00 49 1015.8
20260503130140 48 41 0.0 0.0 0.00 0.00 0.00 53 1016.1
20260503120106 43 27 0.9 0.9 0.00 0.00 0.00 64 1015.5
20260503110533 40 347 3.5 3.5 0.00 0.00 0.00 71 1014.9
20260503090420 37 42 0.0 0.9 0.00 0.00 0.00 86 1013.3
20260503081346 36 31 0.0 0.0 0.00 0.00 0.00 91 1013.1
20260503080843 36 27 0.0 0.0 0.00 0.00 0.00 91 1013.0
20260503080340 36 26 0.0 0.0 0.00 0.00 0.00 91 1013.0
20260503072817 36 32 0.0 0.0 0.00 0.00 0.00 91 1012.5
20260503072314 36 26 0.0 0.0 0.00 0.00 0.00 91 1012.7
20260503071809 36 30 0.0 0.0 0.00 0.00 0.00 91 1012.5
20260503071307 37 30 0.0 0.0 0.00 0.00 0.00 90 1012.6
20260503070803 37 31 0.0 0.0 0.00 0.00 0.00 90 1012.5